User: anonymous   Login
Location: Hickory_Viewmont
(35.7830°N, 81.3170°W)
Time: 06:23:56
(UTC-04:00)
Language:

Okean-O - Orbit

View from above orbital plane
View from above orbital plane
View from above satellite
View from above satellite

Ground track
Ground track

The orbit data is extracted from the following two-line orbital elements,

1 25860U 99039A   17147.94661834 +.00000032 +00000-0 +12206-4 0  9992
2 25860 098.1851 132.5451 0001253 112.3995 247.7347 14.76473975960740
Epoch (UTC): 27 May 2017 22:43:07
Eccentricity: 0.0001253
inclination: 98.1851°
perigee height: 639 km
apogee height: 641 km
right ascension of ascending node: 132.5451°
argument of perigee: 112.3995°
revolutions per day: 14.76473975
mean anomaly at epoch: 247.7347°
orbit number at epoch: 96074

The dashed part of the orbit path shows where the satellite is in the earth's shadow,  

DLR